This is the latest recevied weather packets stored in our database for station/object K4CRS-13. If no packets are shown the sender has not sent any weather packets the latest 10 day(s).
| Time | Temp. | Humidity | Pressure | Rain* | Wind** | Luminosity | Snow |
|---|---|---|---|---|---|---|---|
| 1777148906 | 26.67° C | 58% | 1043.6 hPa | 0 mm | - | 242 W/m² | - |
| 1777148603 | 26.11° C | 59% | 1043.6 hPa | 0 mm | - | 683 W/m² | - |
| 1777148299 | 26.67° C | 57% | 1043.4 hPa | 0 mm | - | 510 W/m² | - |
| 1777147995 | 26.11° C | 61% | 1043.6 hPa | 0 mm | - | 751 W/m² | - |
| 1777147691 | 25.56° C | 60% | 1043.6 hPa | 0 mm | - | 262 W/m² | - |
| 1777147387 | 26.11° C | 61% | 1043.7 hPa | 0 mm | - | 626 W/m² | - |
| 1777147082 | 25.56° C | 60% | 1043.8 hPa | 0 mm | - | 746 W/m² | - |
| 1777146779 | 25.56° C | 61% | 1043.9 hPa | 0 mm | - | 210 W/m² | - |
| 1777146474 | 25.56° C | 60% | 1043.8 hPa | 0 mm | - | 159 W/m² | - |
| 1777146171 | 26.67° C | 59% | 1043.9 hPa | 0 mm | - | 226 W/m² | - |
| 1777145867 | 26.67° C | 59% | 1043.9 hPa | 0 mm | - | 922 W/m² | - |
| 1777145563 | 25.56° C | 62% | 1043.8 hPa | 0 mm | - | 982 W/m² | - |
| 1777145258 | 26.11° C | 57% | 1044.1 hPa | 0 mm | - | 207 W/m² | - |
| 1777144953 | 26.11° C | 60% | 1044.1 hPa | 0 mm | - | 766 W/m² | - |
| 1777144652 | 26.11° C | 61% | 1043.8 hPa | 0 mm | - | 887 W/m² | - |
| 1777144348 | 25.56° C | 60% | 1043.8 hPa | 0 mm | - | 893 W/m² | - |
| 1777144045 | 26.11° C | 60% | 1044.1 hPa | 0 mm | - | 252 W/m² | - |
| 1777143741 | 26.11° C | 57% | 1044 hPa | 0 mm | - | 247 W/m² | - |
| 1777143438 | 26.11° C | 59% | 1044.1 hPa | 0 mm | - | 862 W/m² | - |
| 1777143134 | 25.56° C | 63% | 1044.1 hPa | 0 mm | - | 917 W/m² | - |
| 1777142829 | 25.56° C | 60% | 1044.1 hPa | 0 mm | - | 274 W/m² | - |
| 1777142526 | 25° C | 62% | 1044.3 hPa | 0 mm | - | 966 W/m² | - |
| 1777142225 | 25.56° C | 62% | 1044.2 hPa | 0 mm | - | 211 W/m² | - |
| 1777141923 | 25.56° C | 61% | 1044.3 hPa | 0 mm | - | 650 W/m² | - |
| 1777141619 | 25° C | 62% | 1044.1 hPa | 0 mm | - | 210 W/m² | - |
* Rain latest hour (hover to see other rain measurements)
** Current wind speed in m/s (hover to see current wind gust speed)